Home   Weather   Kawasaki   Past weeks

Flag for Japan Past Weather in Kawasaki, Japan — Yesterday and Last 2 Weeks

70 °F

Passing clouds.

Feels Like: 70 °F
Forecast: 56 / 68 °F
Wind: 3 mph from East

Location: Tokyo International Airport

Current Time: Oct 26, 2016 at 8:22:27 PM

Latest Report: Oct 26, 2016 at 8:00 PM

Visibility: N/A

Pressure: 29.86 "Hg

Humidity: 88%

Dew Point: 66 °F

Location of KawasakiLocation

Past Weather in Kawasaki — Graph


Kawasaki Temperature Yesterday

Maximum temperature yesterday: 64 °F (at 1:30 PM)
Minimum temperature yesterday: 54 °F (at 4:30 AM)
Average temperature yesterday: 59 °F

High & Low Weather Summary for the Past Weeks

High81 °F (Oct 20, 2:30 PM)100% (Oct 17, 9:00 AM)30.39 "Hg (Oct 17, 9:00 AM)
Low54 °F (Oct 25, 4:30 AM)32% (Oct 20, 6:00 PM)29.74 "Hg (Oct 23, 3:00 AM)
Average66 °F70%30.05 "Hg
* Reported Oct 11 7:00 PM — Oct 26 7:00 PM, Kawasaki, Weather by CustomWeather, © 2016

Note: Actual official high and low records may vary slightly from our data, if they occured in-between our weather recording intervals... More about our weather records


Kawasaki Weather History for the Previous 24 Hours

Scroll right to see more
Time TempWeatherWind HumidityBarometerVisibility
7:00 PM
Wed, Oct 26
75 °FClear.2 mph74%29.86 "Hg10 mi
6:30 PM73 °FPassing clouds.3 mph74%29.86 "HgN/A
6:00 PM75 °FPartly cloudy.6 mph69%29.86 "HgN/A
5:30 PM75 °FPassing clouds.7 mph69%29.83 "HgN/A
5:00 PM75 °FPassing clouds.8 mph69%29.83 "HgN/A
4:30 PM75 °FPassing clouds.7 mph78%29.83 "HgN/A
4:00 PM75 °FPassing clouds.7 mph78%29.83 "HgN/A
3:30 PM75 °FPassing clouds.13 mph78%29.83 "HgN/A
3:00 PM77 °FPassing clouds.17 mph74%29.83 "HgN/A
2:30 PM75 °FPassing clouds.16 mph78%29.83 "HgN/A
2:00 PM75 °FPassing clouds.10 mph78%29.83 "HgN/A
1:30 PM75 °FPassing clouds.10 mph74%29.86 "HgN/A
1:00 PM73 °FPassing clouds.12 mph74%29.86 "HgN/A
12:30 PM73 °FPassing clouds.9 mph74%29.89 "Hg6 mi
12:00 PM70 °FPassing clouds.9 mph78%29.89 "Hg5 mi
11:30 AM68 °FPassing clouds.6 mph83%29.92 "Hg4 mi
11:00 AM68 °FPassing clouds.6 mph78%29.92 "Hg6 mi
10:30 AM66 °FClear.5 mph83%29.95 "Hg6 mi
10:00 AM66 °FSunny.5 mph78%29.95 "Hg10 mi
9:30 AM66 °FSunny.3 mph78%29.95 "Hg10 mi
9:00 AM64 °FSunny.3 mph83%29.95 "Hg10 mi
8:30 AM64 °FSunny.2 mph78%29.95 "Hg10 mi
8:00 AM63 °FSunny.5 mph83%29.98 "Hg10 mi
7:30 AM63 °FPassing clouds.5 mph83%29.98 "HgN/A
7:00 AM61 °FPassing clouds.1 mph88%29.95 "HgN/A
6:30 AM59 °FPassing clouds.5 mph94%29.98 "HgN/A
6:00 AM59 °FPassing clouds.3 mph94%29.95 "Hg5 mi
5:30 AM59 °FPassing clouds.2 mph88%29.95 "HgN/A
5:00 AM59 °FPassing clouds.2 mph88%29.95 "HgN/A
4:30 AM61 °FPassing clouds.6 mph83%29.92 "HgN/A
4:00 AM61 °FPassing clouds.6 mph83%29.92 "HgN/A
3:30 AM59 °FPassing clouds.8 mph88%29.92 "Hg5 mi
3:00 AM61 °FPartly cloudy.9 mph88%29.92 "Hg4 mi
2:30 AM61 °FPartly cloudy.10 mph88%29.92 "Hg5 mi
2:00 AM61 °FPassing clouds.9 mph94%29.92 "Hg5 mi
1:30 AM66 °FPassing clouds.3 mph94%29.92 "HgN/A
1:00 AM66 °FPartly cloudy.10 mph94%29.92 "HgN/A
12:49 AM66 °FPartly cloudy.8 mph94%29.92 "HgN/A
12:30 AM64 °FPartly cloudy.8 mph94%29.95 "HgN/A
12:00 AM64 °FPassing clouds.10 mph94%29.92 "HgN/A
11:30 PM
Tue, Oct 25
63 °FPassing clouds.13 mph94%29.95 "HgN/A
11:00 PM63 °FPassing clouds.7 mph94%29.98 "HgN/A
10:30 PM61 °FScattered showers. Passing clouds.10 mph94%29.98 "Hg4 mi
10:00 PM61 °FLight rain. Passing clouds.9 mph94%30.01 "Hg4 mi
9:30 PM61 °FLight rain. Passing clouds.8 mph94%30.01 "HgN/A
9:00 PM61 °FPartly cloudy.8 mph94%30.01 "HgN/A
8:30 PM61 °FLight rain. Partly cloudy.8 mph94%30.01 "Hg6 mi
8:00 PM59 °FLight rain. Passing clouds.No wind100%30.04 "HgN/A
Weather by CustomWeather, © 2016

See weather overviewHow to use our weather pages